Weather Roundup
Issued by NWS Chicago, IL

Home | Current Version | Previous Version | Text Only | Print | Product List | Glossary On
Versions: 1 2 3 4 5 6 7 8 9 10 11 12 13 14 15 16 17 18 19 20 21 22 23 24 25 26 27 28 29 30 31 32 33 34 35 36 37 38 39 40 41 42 43 44 45 46 47 48 49 50
000
NZUS59 KLOT 030321
HRRLOT

CHICAGO AREA WEATHER ROUNDUP
NATIONAL WEATHER SERVICE CHICAGO/ROMEOVILLE IL
1000 PM CDT THU JUL 02 2015

NOTE: "FAIR" INDICATES FEW OR NO CLOUDS BELOW 12,000 FEET WITH NO
SIGNIFICANT WEATHER AND/OR OBSTRUCTIONS TO VISIBILITY.

* THESE STATIONS ARE NOT UNDER NWS QUALITY CONTROL. THEY ALSO MAY NOT
  REPORT WEATHER SUCH AS PRECIPITATION OR FOG.

ILZ005-006-012>014-019>023-030400-
NORTHEAST ILLINOIS

CITY           SKY/WX    TMP DP  RH WIND       PRES   REMARKS
OHARE          CLOUDY    58  49  72 N6        30.00R
MIDWAY         CLOUDY    62  52  69 N9        30.00R
AURORA           N/A     62  51  67 NE9       29.99R
LANSING*       MOCLDY    59  53  79 N6        29.99R
JOLIET*        MOCLDY    62  54  76 NE7       29.99R
WAUKEGAN         N/A     55  48  77 N5        30.00R
DUPAGE AIRPORT MOCLDY    59  51  75 NE8       29.99R
WHEELING       PTCLDY    58  48  69 N6        30.02R
KANKAKEE*      MOCLDY    60  56  88 NE10      29.97R
MORRIS*        MOCLDY    62  55  77 NE5       29.96R
LEWIS AIRPORT* MOCLDY    59  50  72 NE13      29.99R
NORTHERLY IS     N/A     58  51  78 N6          N/A
$$

WIZ051-052-058>065-066-070>072-030400-
SOUTHEAST WISCONSIN

CITY           SKY/WX    TMP DP  RH WIND       PRES   REMARKS
MILWAUKEE      MOCLDY    56  46  69 N3        30.02R
KENOSHA*       PTCLDY    55  47  74 N3        30.02R
RACINE*        CLEAR     56  46  69 N5        30.03R
BURLINGTON     PTCLDY    54  47  80 CALM      30.02R
WAUKESHA       PTCLDY    54  45  71 CALM      30.03S
WEST BEND      CLEAR     54  46  76 CALM      30.03R
$$

INZ001>003-010>013-019-020-030400-
NORTHWEST INDIANA

CITY           SKY/WX    TMP DP  RH WIND       PRES   REMARKS
GARY*          CLOUDY    61  59  94 N9        29.99R
MICHIGAN CITY* NOT AVBL
RENSSELAER*    NOT AVBL
VALPARAISO     MOCLDY    60  55  83 N5        29.98R
$$

LMZ740>746-030400-
SOUTHERN LAKE MICHIGAN

STATION/POSITION TIME  SKY/WX   TEMP WIND        PRES    VSBY
                                AIR  DIR/SP/G
                 (UTC)          (F)  (DEG/KT/KT) (MB)    (MI)
HARRISON CRIB    0300            59   10/ 11/ 14   N/A
BURNHAM HARBOR   0300            58  350/  4/ 12   N/A
CALUMET HARBOR   0200            59  350/  7/  9   N/A
BURNS HARBOR     0200            63   50/ 16/ 19 1015.2F
MICHIGAN CITY    0300            60   30/ 12/ 13   N/A
$$

ABBREVIATIONS USED IN REMARKS
   TC - TEMPERATURE IN CELSIUS
  WCI - WIND CHILL INDEX
   HX - HEAT INDEX
  VSB - VISIBILITY
$$


USA.gov is the U.S. government's official web portal to all federal, state and local government web resources and services.